080  
ASUS43 KLMK 181810  
RWRKY  
KENTUCKY REGIONAL WEATHER ROUNDUP  
NATIONAL WEATHER SERVICE LOUISVILLE KY  
100 PM EST WED JAN 18 2017  
 
NOTE "FAIR" INDICATES FEW OR NO CLOUDS BELOW 12,000 FEET  
WITH NO SIGNIFICANT WEATHER AND/OR S TO VISIBILITY
.  
 
KYZ001>023-026-027-061>063-070>075-181900-  
WESTERN AND SOUTH CENTRAL KENTUCKY  
 
CITY SKY/WX TMP DP RH WIND PRES REMARKS
 
PADUCAH CLOUDY 44 37 76 CALM 30.23F  
HENDERSON CLOUDY 43 34 70 CALM 30.23F  
OWENSBORO CLOUDY 43 36 75 NW6 30.23F  
HOPKINSVILLE CLOUDY 46 39 77 CALM 30.21F  
BOWLING GREEN CLOUDY 47 38 71 CALM 30.23F  
GLASGOW CLOUDY 47 37 68 CALM 30.21F  

 
 
KYZ024-025-028>034-038-045-046-053-181900-  
NORTH CENTRAL KENTUCKY  
 
CITY SKY/WX TMP DP RH WIND PRES REMARKS
 
LOUISVILLE/SDF CLOUDY 44 35 70 NW7 30.22F  
LOUISVILLE/LOU CLOUDY 43 35 73 W9 30.22F  
FORT KNOX CLOUDY 42 35 76 W5 30.20S  

 
 
KYZ035>037-039>044-047>052-055>060-089>105-181900-  
NORTHEAST KENTUCKY  
 
CITY SKY/WX TMP DP RH WIND PRES REMARKS
 
LEXINGTON CLOUDY 43 36 76 W7 30.20F  
COVINGTON CLOUDY 40 36 86 W10 30.18F WCI 33  
FRANKFORT CLOUDY 42 35 76 W6 30.20F  

 
 
KYZ054-064>069-076>088-106>120-181900-  
SOUTHEAST KENTUCKY  
 
CITY SKY/WX TMP DP RH WIND PRES REMARKS
 
JACKSON CLOUDY 43 37 79 NW3 30.18F  
LONDON CLOUDY 45 34 65 SW6 30.20F  
SOMERSET CLOUDY 45 34 65 W5 30.22F  
MIDDLESBORO MOSUNNY 51 39 62 SW3 30.18F  
MONTICELLO CLOUDY 48 37 65 W8 30.23F  

 
 
 
 
CLICK HERE TO GO TO PREVIOUS BULLETINS.

The Nexlab KY Page Main Text Page